www.pogodaiklimat.ru

Погода и климат >> Архив погоды >> Италия >> Матера


ПОГОДА в Матере

  • Прогноз погоды в Матере
  • Монитор погоды в Матере

АРХИВ ПОГОДЫ в Матере

Время (UTC), дата Ветер
(напр.,м/с)
 
Видим.   Явления Облачность Т
(С)
Тd
(С)
f
(%)
Тe
(С)
Тes
(С)
Комфортность P
(гПа)
Po
(гПа)
Тmin
(С)
Tmax
(С)
R
(мм)
R24
(мм)
S
(см)
19 19.03 СВ 5 н/о н/о +9.3 +9.3 100 +6 +6 1021.9 962.5
20 19.03 В 7 н/о н/о +9.1 +9.1 100 +5 +5 1022.5 963.1
21 19.03 СВ 7 н/о н/о +8.5 +8.5 100 +4 +4 1022.9 963.3
22 19.03 СВ 7 н/о н/о +8.2 +8.2 100 +4 +4 1023.3 963.6
23 19.03 СВ 6 н/о н/о +7.7 +7.1 96 +3 +3 1023.4 963.6
00 20.03 СВ 6 н/о н/о +7.7 +7.1 96 +3 +3 1023.6 963.8
01 20.03 СВ 7 н/о н/о +7.8 +7.7 99 +3 +3 1023.5 963.7
02 20.03 СВ 7 н/о н/о +7.6 +7.6 100 +3 +3 1023.7 963.9
03 20.03 СВ 8 н/о н/о +7.2 +7.2 100 +2 +2 1023.4 963.5
04 20.03 СВ 7 н/о н/о +6.8 +6.8 100 +2 +2 1023.7 963.7
05 20.03 СВ 7 н/о н/о +6.7 +6.7 100 +1 +1 1024.2 964.1
06 20.03 СВ 9 н/о н/о +6.6 +6.6 100 +1 +1 1024.4 964.3 +6.5 3 415
07 20.03 СВ 6 н/о н/о +6.7 +6.7 100 +2 +2 1024.6 964.5
08 20.03 СВ 6 н/о н/о +7.8 +7.8 100 +3 +3 1025.4 965.5
09 20.03 СВ 6 н/о н/о +8.0 +8.0 100 +4 +4 1025.8 965.9
10 20.03 СВ 9 н/о н/о +8.0 +8.0 100 +3 +3 1026.2 966.3
11 20.03 СВ 8 н/о н/о +8.4 +8.2 99 +3 +3 1025.4 965.7
12 20.03 СВ 10 н/о н/о +10.1 +9.0 93 +6 +6 1025.0 965.7 0.4
13 20.03 СВ 10 н/о н/о +9.8 +8.5 92 +5 +5 1025.1 965.6
14 20.03 СВ 11 н/о н/о +9.6 +8.2 91 +5 +5 1025.1 965.6
15 20.03 СВ 11 н/о н/о +9.6 +8.0 90 +5 +5 1025.1 965.6
16 20.03 СВ 11 н/о н/о +9.3 +7.9 91 +4 +4 1025.4 965.8
17 20.03 СВ 10 н/о н/о +8.5 +7.6 94 +3 +3 1025.9 966.1
18 20.03 СВ 10 н/о н/о +7.2 +6.4 95 +2 +2 1026.6 966.5 +10.5 0.4
19 20.03 СВ 9 н/о н/о +6.2 +5.6 96 0 0 1027.4 967.1
20 20.03 СВ 9 н/о н/о +5.8 +5.2 96 -0 -0 1027.8 967.4
21 20.03 СВ 9 н/о н/о +5.6 +5.2 97 -1 -1 1027.8 967.3
22 20.03 СВ 9 н/о н/о +5.4 +4.7 95 -1 -1 1028.3 967.7
23 20.03 СВ 9 н/о н/о +5.0 +4.4 96 -1 -1 1028.2 967.6
00 21.03 С 8 н/о н/о +4.9 +3.7 92 -1 -1 1028.5 967.8
01 21.03 С 9 н/о н/о +4.3 +3.6 95 -2 -2 1028.1 967.4
02 21.03 С 9 н/о н/о +4.3 +3.1 92 -2 -2 1027.8 967.0
03 21.03 СВ 9 н/о н/о +4.1 +3.4 95 -3 -3 1028.0 967.2
04 21.03 СВ 10 н/о н/о +4.2 +3.3 94 -3 -3 1028.0 967.2
05 21.03 СВ 9 н/о н/о +3.7 +3.1 96 -3 -3 1028.4 967.5
06 21.03 СВ 9 н/о н/о +4.2 +3.0 92 -2 -2 1028.7 967.9 +3.5 317
07 21.03 С 8 н/о н/о +5.8 +4.1 89 0 0 1029.0 968.5
08 21.03 СВ 11 н/о н/о +8.0 +6.1 88 +2 +2 1028.7 968.7
09 21.03 СВ 11 н/о н/о +11.1 +7.9 81 +7 +7 1028.2 968.9
10 21.03 СВ 10 н/о н/о +12.3 +7.9 74 +9 +9 1028.3 969.1
11 21.03 СВ 9 н/о н/о +12.9 +7.7 71 +10 +10 1028.1 969.1
12 21.03 В 9 н/о н/о +13.1 +8.1 72 +10 +10 1027.6 968.7
13 21.03 В 9 н/о н/о +13.2 +8.0 71 +10 +10 1027.0 968.1
14 21.03 СВ 11 н/о н/о +12.9 +8.3 74 +9 +9 1026.9 968.0
15 21.03 СВ 11 н/о н/о +12.4 +8.2 76 +9 +9 1026.8 967.8
17 21.03 СВ 7 н/о н/о +10.2 +5.7 74 +7 +7 1028.1 968.5
18 21.03 СВ 8 н/о н/о +8.4 +5.5 82 +4 +4 1028.5 968.5 +13.7
19 21.03 СВ 7 н/о н/о +7.6 +6.0 90 +3 +3 1029.1 969.0
20 21.03 СВ 7 н/о н/о +7.7 +6.0 89 +3 +3 1029.2 969.1
21 21.03 СВ 8 н/о н/о +7.3 +6.5 95 +2 +2 1029.3 969.1
22 21.03 СВ 6 н/о н/о +7.0 +6.4 96 +2 +2 1029.5 969.2
23 21.03 СВ 7 н/о н/о +6.9 +6.0 94 +2 +2 1029.2 968.9
00 22.03 СВ 8 н/о н/о +7.0 +4.4 84 +2 +2 1029.3 969.0
01 22.03 СВ 8 н/о н/о +5.9 +4.4 90 0 0 1029.2 968.7
02 22.03 СВ 7 н/о н/о +6.2 +4.5 89 +1 +1 1028.8 968.4
03 22.03 С 8 н/о н/о +6.1 +4.2 88 +1 +1 1028.7 968.3
04 22.03 СВ 8 н/о н/о +5.7 +4.5 92 0 0 1029.1 968.6
05 22.03 СВ 8 н/о н/о +6.2 +5.1 93 +1 +1 1029.3 968.8
06 22.03 С 6 н/о н/о +6.2 +5.4 95 +1 +1 1029.6 969.2 +5.6 212
07 22.03 С 6 н/о н/о +7.7 +6.3 91 +3 +3 1029.6 969.5
08 22.03 СВ 8 н/о н/о +10.1 +8.3 89 +6 +6 1029.2 969.6
09 22.03 В 8 н/о н/о +12.1 +8.5 79 +9 +9 1028.8 969.6
10 22.03 В 8 н/о н/о +13.2 +8.4 73 +11 +11 1028.6 969.6
11 22.03 В 8 н/о н/о +13.7 +9.3 75 +11 +11 1028.1 969.4
12 22.03 В 6 н/о н/о +14.2 +8.5 69 +12 +12 1027.6 968.9
13 22.03 В 6 н/о н/о +14.7 +7.9 64 +13 +13 1027.0 968.4
14 22.03 В 7 н/о н/о +14.5 +7.2 62 +12 +12 1026.6 968.0
15 22.03 В 7 н/о н/о +14.2 +6.7 61 +12 +12 1026.4 967.7
16 22.03 СВ 5 н/о н/о +13.5 +6.3 62 +12 +12 1026.2 967.4
17 22.03 СВ 7 н/о н/о +11.8 +5.8 67 +9 +9 1026.6 967.4
18 22.03 СВ 5 н/о н/о +9.7 +6.4 80 +7 +7 1027.1 967.5 +14.9
19 22.03 СВ 6 н/о н/о +8.5 +6.6 88 +4 +4 1027.2 967.4
20 22.03 СВ 7 н/о н/о +7.6 +6.2 91 +3 +3 1027.5 967.4
21 22.03 С 7 н/о н/о +7.3 +6.5 95 +3 +3 1027.3 967.2
22 22.03 С 6 н/о н/о +7.0 +6.4 96 +2 +2 1027.0 966.9
23 22.03 С 7 н/о н/о +6.4 +5.2 92 +1 +1 1027.0 966.7
00 23.03 С 7 н/о н/о +6.0 +3.8 86 +1 +1 1026.7 966.4
01 23.03 С 6 н/о н/о +6.1 +2.9 80 +1 +1 1026.2 965.9
02 23.03 С 7 н/о н/о +6.1 +2.7 79 +1 +1 1025.8 965.5
03 23.03 С 6 н/о н/о +5.7 +2.5 80 +1 +1 1025.6 965.3
04 23.03 С 7 н/о н/о +5.7 +2.3 79 0 0 1025.5 965.2
05 23.03 СВ 7 н/о н/о +5.6 +1.8 77 0 0 1025.6 965.2
06 23.03 СВ 7 н/о н/о +7.0 +2.0 70 +2 +2 1025.6 965.6 +5.4 314
07 23.03 СВ 6 н/о н/о +8.6 +2.5 65 +5 +5 1025.3 965.6
08 23.03 СВ 8 н/о н/о +10.6 +5.7 72 +7 +7 1024.9 965.7
09 23.03 СВ 7 н/о н/о +13.3 +6.3 63 +11 +11 1024.3 965.6
10 23.03 СВ 8 н/о н/о +14.8 +6.0 56 +13 +13 1023.9 965.5
11 23.03 В 5 н/о н/о +15.7 +5.5 51 +15 +15 1023.6 965.4
12 23.03 СВ 5 н/о н/о +16.4 +5.3 48 +16 +16 1023.1 965.1
13 23.03 В 8 н/о н/о +16.4 +5.3 48 +15 +15 1022.6 964.6
14 23.03 В 6 н/о н/о +16.1 +5.0 48 +15 +15 1022.1 964.1
15 23.03 СВ 6 н/о н/о +15.8 +3.8 45 +15 +15 1022.2 964.1
16 23.03 СВ 7 н/о н/о +15.2 +4.2 48 +14 +14 1022.3 964.1
17 23.03 СВ 6 н/о н/о +13.5 +3.2 50 +12 +12 1022.8 964.2
18 23.03 СВ 6 н/о н/о +10.9 +4.9 66 +8 +8 1023.2 964.1 +16.8
19 23.03 СВ 8 н/о н/о +9.7 +4.4 70 +6 +6 1024.1 964.6
20 23.03 СВ 7 н/о н/о +9.5 +3.6 67 +6 +6 1024.2 964.8
21 23.03 С 7 н/о н/о +8.6 +4.7 76 +5 +5 1024.6 964.9
22 23.03 СВ 6 н/о н/о +8.5 +3.9 73 +5 +5 1024.6 964.9
23 23.03 С 6 н/о н/о +8.1 +2.7 69 +4 +4 1024.7 964.9
00 24.03 С 7 н/о н/о +8.0 +1.7 64 +4 +4 1024.4 964.7
01 24.03 С 6 н/о н/о +8.2 +1.0 60 +5 +5 1024.4 964.7
02 24.03 С 7 н/о н/о +7.9 +0.5 59 +4 +4 1024.0 964.2
03 24.03 С 8 н/о н/о +8.1 0.0 57 +4 +4 1023.9 964.2
04 24.03 С 6 н/о н/о +8.0 -0.6 55 +4 +4 1023.9 964.2
05 24.03 С 7 н/о н/о +7.8 -0.8 54 +4 +4 1024.1 964.3
06 24.03 С 7 н/о н/о +8.9 +0.3 55 +5 +5 1024.3 964.7 +7.4 111
07 24.03 С 5 н/о н/о +10.5 +1.2 53 +8 +8 1024.2 965.0
08 24.03 С 5 н/о н/о +13.0 +2.7 50 +11 +11 1024.1 965.4
09 24.03 СВ 6 н/о н/о +14.9 +4.2 49 +13 +13 1023.7 965.3
10 24.03 СВ 6 н/о н/о +16.6 +3.9 43 +16 +16 1023.3 965.3
11 24.03 СВ 4 н/о н/о +17.6 +3.8 40 +17 +17 1022.9 965.1
12 24.03 С 2 н/о н/о +18.7 +3.6 37 +19 +19 1022.3 964.7
13 24.03 СВ 3 н/о н/о +19.5 +4.3 37 +20 +20 1021.4 964.1
14 24.03 штиль 0 н/о н/о +19.8 +4.6 37 +20 +20 1020.7 963.5
15 24.03 СВ 1 н/о н/о +19.7 +4.5 37 +21 +21 комфорт 1020.2 963.0
16 24.03 СВ 3 н/о н/о +19.5 +4.3 37 +20 +20 1020.2 962.9
17 24.03 ЮВ 1 н/о н/о +16.5 +5.1 47 +17 +17 1020.9 963.0
18 24.03 ЮВ 2 н/о н/о +15.7 +3.4 44 +16 +16 1021.2 963.1 +20.4
19 24.03 ЮЗ 3 н/о н/о +14.4 +3.1 47 +14 +14 1021.5 963.1
20 24.03 З 3 н/о н/о +13.8 +2.3 46 +13 +13 1021.4 963.0
21 24.03 З 4 н/о н/о +12.2 +1.7 49 +11 +11 1021.4 962.6
22 24.03 С 4 н/о н/о +12.6 +4.0 56 +11 +11 1021.0 962.3
23 24.03 С 3 н/о н/о +13.3 +4.4 55 +12 +12 1020.4 961.9
00 25.03 штиль 0 н/о н/о +13.3 +2.4 48 +13 +13 1020.0 961.5
01 25.03 штиль 0 н/о н/о +12.9 +2.1 48 +13 +13 1019.7 961.1
02 25.03 С 5 н/о н/о +12.2 +1.4 48 +10 +10 1019.2 960.6
03 25.03 СЗ 6 н/о н/о +11.1 +1.0 50 +9 +9 1018.9 960.1
04 25.03 СЗ 5 н/о н/о +11.1 +1.0 50 +9 +9 1018.7 959.9
05 25.03 СЗ 3 н/о н/о +12.0 +0.6 46 +11 +11 1018.3 959.7
06 25.03 СЗ 5 н/о н/о +11.6 +1.1 48 +10 +10 1018.3 959.7 +9.7 210
07 25.03 штиль 0 н/о н/о +14.8 +2.9 45 +15 +15 1017.4 959.4
08 25.03 штиль 0 н/о н/о +15.9 +3.2 43 +16 +16 1017.0 959.2
09 25.03 С 4 н/о н/о +17.1 +3.3 40 +17 +17 1016.4 958.9
10 25.03 С 4 н/о н/о +17.5 +3.7 40 +17 +17 1016.0 958.6
11 25.03 С 2 н/о н/о +18.9 +4.6 39 +20 +20 1015.1 957.9
12 25.03 С 3 н/о н/о +20.0 +4.8 37 +21 +21 комфорт 1014.0 957.2
13 25.03 С 4 н/о н/о +20.2 +3.8 34 +21 +21 комфорт 1013.1 956.3
14 25.03 С 5 н/о н/о +20.5 +3.2 32 +21 +21 комфорт 1012.2 955.6
15 25.03 ЮЗ 3 н/о н/о +19.4 +5.4 40 +20 +20 1011.8 955.0
16 25.03 штиль 0 н/о н/о +18.0 +5.2 43 +18 +18 1011.8 954.7
17 25.03 штиль 0 н/о н/о +16.1 +3.8 44 +16 +16 1012.1 954.5
18 25.03 С 5 н/о н/о +14.1 +2.6 46 +13 +13 1012.1 954.2 +21.0
19 25.03 С 5 н/о н/о +12.8 +2.3 49 +11 +11 1012.3 954.2
20 25.03 С 6 н/о н/о +12.0 +2.9 54 +10 +10 1012.3 954.0
21 25.03 С 6 н/о н/о +11.7 +2.9 55 +9 +9 1012.0 953.7
22 25.03 С 6 н/о н/о +11.0 +2.0 54 +8 +8 1011.9 953.5
23 25.03 С 6 н/о н/о +10.9 +1.1 51 +8 +8 1011.5 953.1
00 26.03 С 6 н/о н/о +10.8 +0.7 50 +8 +8 1011.5 953.0
01 26.03 С 5 н/о н/о +11.3 +0.6 48 +9 +9 1011.0 952.6
02 26.03 СЗ 4 н/о н/о +10.8 +0.7 50 +9 +9 1010.5 952.1
03 26.03 С 2 н/о н/о +10.8 +1.0 51 +10 +10 1010.5 952.1
04 26.03 штиль 0 н/о н/о +11.0 +0.6 49 +11 +11 1010.6 952.3
05 26.03 штиль 0 н/о н/о +10.6 +0.5 50 +10 +10 1011.1 952.6
06 26.03 С 3 н/о н/о +10.8 +3.0 59 +9 +9 1011.6 953.2 +8.2 405
07 26.03 С 4 н/о н/о +11.4 +4.8 64 +9 +9 1012.1 953.7
08 26.03 С 6 н/о н/о +12.7 +5.5 62 +10 +10 1012.2 954.1
09 26.03 С 6 н/о н/о +13.7 +6.2 60 +12 +12 1012.2 954.3
10 26.03 С 8 н/о н/о +14.3 +7.1 62 +12 +12 1012.7 954.8
11 26.03 С 10 н/о н/о +13.7 +8.1 69 +11 +11 1013.2 955.2
12 26.03 С 6 н/о н/о +13.8 +8.6 71 +12 +12 1013.5 955.5
13 26.03 С 8 н/о н/о +14.1 +8.7 70 +12 +12 1013.7 955.8
14 26.03 СВ 12 н/о н/о +12.9 +7.5 70 +9 +9 1014.2 956.0
15 26.03 СВ 14 н/о н/о +10.6 +6.7 77 +6 +6 1015.2 956.4
16 26.03 СВ 10 н/о н/о +8.8 +6.7 87 +4 +4 1016.3 957.1
17 26.03 СВ 13 н/о н/о +8.1 +6.7 91 +2 +2 1017.0 957.7
18 26.03 СВ 13 н/о н/о +7.9 +6.5 91 +2 +2 1017.7 958.3 +15.2

 

Местоположение метеостанции Матера (Италия): широта 40.67 долгота 16.66 высота над уровнем моря 498 м.

В архиве по умолчанию представлена погода в Матере за последнюю неделю. Архивные данные за месяц целиком и за предыдущие месяцы, начиная с января 2011 года, Вы можете получить, выбрав интересующий диапазон дат из раскрывающегося списка и нажав кнопку "Ввод!".


*Определитесь, кто Вы:
робот инопланетянин человек

Внимание! Время в таблицах - всемирное. Для получения местного времени необходимо прибавить поправку, которая равна 1 ч.

Смотрите также архив погоды в соседних городах и на ближайших метеорологических станциях:

Погода в Джоя-дель-Колле (Италия) (25 км)
Погода в Джинозе (Италия) (33 км)
Погода в Мартина-Франка (Италия) (47 км)
Погода в Бари аэропорту (Италия) (52 км)
Погода в Бари (Италия) (53 км)
Погода в Латронико (Италия) (85 км)
Погода в Бриндиси (Италия) (109 км)
Погода в Амендоле (Италия) (124 км)
Погода в Тревико (Италия) (128 км)
Погода в Монте-Сант-Анджело (Италия) (129 км)

Пояснения к столбцам:

Ветер - указаны скорость ветра в м/с - средняя за 10 мин, порывы в срок и между сроками (в фигурных скобках) и направление, откуда дует ветер: С - северный, СВ - северо-восточный, В - восточный, ЮВ - юго-восточный, Ю - южный, ЮЗ - юго-западный, З - западный, СЗ - северо-западный.
Видимость - горизонтальная дальность видимости в метрах или километрах. При видимости от 1 до 10 км при отсутствии осадков обычно наблюдается дымка, при ухудшении видимости до 1 км и менее - туман. В сухую погоду видимость может ухудшаться дымом, пылью или мглою.
Явления - указаны атмосферные явления, наблюдавшиеся в срок или в последний час перед сроком; фигурными скобками обозначены явления, наблюдавшиеся между сроками (за 1-3 часа до срока); квадратными скобками обозначены град или гололедные отложения с указанием их диаметра в мм.
Облачность - указаны через наклонную черту общая и нижняя облачность в баллах и высота нижней границы облаков в метрах; квадратными скобками обозначены формы облаков: Ci - перистые, Cs - перисто-слоистые, Cc - перисто-кучевые, Ac - высококучевые, As - высокослоистые, Sc - слоисто-кучевые, Ns - слоисто-дождевые, Cu - кучевые, Cb - кучево-дождевые. Подробнее классификацию облаков см. в Атласе облаков (PDF).
T - Температура воздуха - температура, измеренная на высоте 2 м над землей.
Td - Температура точки росы - температура, при понижении до которой содержащийся в воздухе водяной пар достигнет насыщения.
f - Относительная влажность воздуха - влажноcть воздуха, измеренная на высоте 2 м над землей.
Te - Эффективная температура - температура, которую ощущает одетый по сезону человек в тени. Характеристика душности погоды. При расчете учитывается влияние влажности воздуха и скорости ветра на теплоощущения человека.
Tes - Эффективная температура на солнце - температура, которую ощущает человек, с поправкой на солнечный нагрев. Характеристика знойности погоды. Зависит от высоты солнца над горизонтом, облачности и скорости ветра. Ночью, в пасмурную погоду, а также при ветре 12 м/с и более поправка равна нулю.
P - Атмосферное давление - приведенное к уровню моря атмосферное давление.
Po - Атмосферное давление - измеренное на уровне метеостанции атмосферное давление.
Tmin - Минимальная температура - минимум температуры воздуха на высоте 2 м над землей.
Tmax - Максимальная температура - максимум температуры воздуха на высоте 2 м над землей.
R - Количество осадков - Количество выпавших осадков за период времени, мм. При наведении курсора мыши на число - период времени, за который выпало указанное количество осадков.
R24 - Количество осадков - Количество выпавших осадков за 24 часа, мм.
S - Снежный покров - Высота снежного покрова, см. При наведении курсора мыши на число - состояние снежного покрова и степень покрытия местности в баллах.